Regional Weather Roundup
Issued by NWS

Home | Current Version | Previous Version | Graphics & Text | Print | Product List | Glossary Off
Versions: 1 2 3 4 5 6 7 8 9 10 11 12 13 14 15 16 17 18 19 20 21 22 23 24 25 26 27 28 29 30 31 32 33 34 35 36 37 38 39 40 41 42 43 44 45 46 47 48 49 50

000
ASUS43 KMKX 211800
RWRWI

WISCONSIN REGIONAL WEATHER ROUNDUP
NATIONAL WEATHER SERVICE MILWAUKEE/SULLIVAN WI
1200 PM CST SUN JAN 21 2018

NOTE: "FAIR" INDICATES FEW OR NO CLOUDS BELOW 12,000 FEET WITH NO
SIGNIFICANT WEATHER AND/OR OBSTRUCTIONS TO VISIBILITY.

WIZ001-002-006>008-014>016-023>028-211900-
NORTHWEST WISCONSIN

CITY           SKY/WX    TMP DP  RH WIND       PRES   REMARKS
SUPERIOR ARPT  FAIR      33  27  81 CALM      30.01F
ASHLAND        FAIR      30  28  92 CALM      30.00F
6HR MIN TEMP:  23; 6HR MAX TEMP:  30;

HAYWARD        CLOUDY    37  28  70 N3        29.97F
6HR MIN TEMP:  25; 6HR MAX TEMP:  37;

SIREN          CLOUDY    35  28  75 NE3       29.99F
CUMBERLAND     CLOUDY    34  28  80 CALM      29.97S
RICE LAKE      FAIR      35  30  82 CALM      29.98F
CHETEK         CLOUDY    36  28  75 CALM      29.97F
LADYSMITH      CLOUDY    36  30  81 CALM      29.98F
EAU CLAIRE     NOT AVBL
MENOMONIE      CLOUDY    38  31  76 N3        29.96F
NEW RICHMOND   CLOUDY    35  28  76 CALM      29.97F
OSCEOLA        CLOUDY    35  29  79 CALM      30.01F
$$

WIZ003>005-009-010-017-018-211900-
NORTH CENTRAL WISCONSIN

CITY           SKY/WX    TMP DP  RH WIND       PRES   REMARKS
MANITOWISH WTR PTSUNNY   33  33  99 CALM      29.95F
ARBOR VITAE    CLOUDY    37  33  87 CALM      29.95S
WOODRUFF       CLOUDY    37  33  87 CALM      29.95S
RHINELANDER    CLOUDY    37  31  78 CALM      29.95F
6HR MIN TEMP:  30; 6HR MAX TEMP:  37;

EAGLE RIVER    FAIR      33  31  90 CALM      29.94F
6HR MIN TEMP:  26; 6HR MAX TEMP:  33;

LAND O LAKES   PTSUNNY   34  34 100 CALM      29.97F
PHILLIPS       CLOUDY    35  31  85 CALM      29.95F
6HR MIN TEMP:  28; 6HR MAX TEMP:  35;

TOMAHAWK       CLOUDY    36  29  78 CALM      29.96F
MEDFORD        CLOUDY    37  30  75 E3        29.94F
MERRILL        CLOUDY    38  32  77 NE3       29.96F
6HR MIN TEMP:  27; 6HR MAX TEMP:  38;

$$

WIZ029-030-035-036-043>047-211900-
CENTRAL WISCONSIN

CITY           SKY/WX    TMP DP  RH WIND       PRES   REMARKS
WAUSAU         CLOUDY    38  31  76 CALM      29.93F
6HR MIN TEMP:  27; 6HR MAX TEMP:  39;

MOSINEE        CLOUDY    41  32  70 NE3       29.96F
MARSHFIELD     CLOUDY    39  31  72 SE5       29.92F
6HR MIN TEMP:  24; 6HR MAX TEMP:  40;

STEVENS POINT  FAIR      39  31  71 E5        29.96F
WAUPACA        FAIR      40  32  73 CALM      29.97F
WAUTOMA        FAIR      37  32  82 N3        29.95F
6HR MIN TEMP:  19; 6HR MAX TEMP:  39;

WISC RAPIDS    FAIR      43  31  62 CALM      29.95F
6HR MIN TEMP:  21; 6HR MAX TEMP:  43;

CAMP DOUGLAS   FAIR      41  33  73 CALM      29.92F
6HR MIN TEMP:  18; 6HR MAX TEMP:  41;

$$

WIZ011>013-019>022-031-037>040-048>050-211900-
NORTHEAST WISCONSIN

CITY           SKY/WX    TMP DP  RH WIND       PRES   REMARKS
ANTIGO         CLOUDY    35  31  85 N3        29.95F
SHAWANO        CLOUDY    42  32  68 NE3       29.97F
6HR MIN TEMP:  28; 6HR MAX TEMP:  42;

OCONTO         CLOUDY    41  32  70 CALM      29.97F
STURGEON BAY   CLOUDY    40  32  73 CALM      29.98F
6HR MIN TEMP:  28; 6HR MAX TEMP:  41;

GREEN BAY      FAIR      39  33  79 CALM      29.97F HAZE
6HR MIN TEMP:  25; 6HR MAX TEMP:  39;

MANITOWOC      FOG       36  34  92 SE6       29.97F VSB 1   WCI  31
6HR MIN TEMP:  24; 6HR MAX TEMP:  40; 6HR PCP: TRACE;

APPLETON       FOG       36  36 100 CALM      29.94F VSB 1
CLINTONVILLE   FAIR      37  32  81 CALM      29.97F
OSHKOSH        FOG       32  32 100 CALM      29.95F VSB<1/4
6HR MIN TEMP:  21; 6HR MAX TEMP:  32;

$$

WIZ032>034-041-042-053>061-211900-
SOUTHWEST WISCONSIN

CITY           SKY/WX    TMP DP  RH WIND       PRES   REMARKS
LA CROSSE      FOG       30  29  96 CALM      29.94F VSB 1/4
6HR MIN TEMP:  21; 6HR MAX TEMP:  30;

SPARTA         FAIR      37  32  82 CALM      29.95F
VIROQUA        FAIR      41  37  86 E3        29.91F
6HR MIN TEMP:  27; 6HR MAX TEMP:  41;

BOSCOBEL       CLOUDY    32  31  96 NE5       29.94F FOG     WCI  27
6HR MIN TEMP:  22; 6HR MAX TEMP:  32;

PRAIRIE DU CHI CLOUDY    31  30  96 CALM      29.94F FOG
PLATTEVILLE    FAIR      37  37 100 E9        29.92F WCI  30
$$

WIZ056-057-062-063-064-067-068-211900-
SOUTH CENTRAL WISCONSIN

CITY           SKY/WX    TMP DP  RH WIND       PRES   REMARKS
REEDSBURG      FAIR      33  33 100 CALM      29.93F FOG
BARABOO/DELLS  FAIR      38  36  90 CALM      29.93F
LONE ROCK      FOG       32  32 100 CALM      29.94F VSB 1/2
MINERAL POINT  CLOUDY    37  37 100 E8        29.91F FOG     WCI  31
MADISON        CLOUDY    38  35  89 CALM      29.94F FOG
6HR MIN TEMP:  29; 6HR MAX TEMP:  38;

MIDDLETON      CLOUDY    38  36  92 CALM      29.93F
WATERTOWN      CLOUDY    37  37 100 CALM      29.94F FOG
MONROE         CLOUDY    36  36 100 E5        29.92F FOG     WCI  32
JANESVILLE     CLOUDY    39  39 100 NE5       29.92F FOG
$$

WIZ051-052-058>065-066-070>072-211900-
SOUTHEAST WISCONSIN

CITY           SKY/WX    TMP DP  RH WIND       PRES   REMARKS
MILWAUKEE      CLOUDY    38  36  92 CALM      29.95F FOG
6HR MIN TEMP:  30; 6HR MAX TEMP:  40;

WAUKESHA       CLOUDY    36  36 100 E6        29.95F FOG     WCI  31
MILWAUKEE/TIMM CLOUDY    37  34  87 CALM      29.97F FOG
RACINE         CLOUDY    38  35  89 CALM      29.96F FOG
6HR MIN TEMP:  36; 6HR MAX TEMP:  38;

BURLINGTON     FAIR      37  35  89 NE5       29.95F FOG     WCI  34
KENOSHA        CLOUDY    39  35  86 NE5       29.94F FOG
6HR MIN TEMP:  38; 6HR MAX TEMP:  40;

FOND DU LAC    FOG       37  35  92 CALM      29.95F VSB 1/4
6HR MIN TEMP:  23; 6HR MAX TEMP:  37;

SHEBOYGAN      FOG       35  35 100 CALM      29.95F VSB<1/4
6HR MIN TEMP:  21; 6HR MAX TEMP:  35;

WEST BEND      CLOUDY    36  36 100 CALM      29.95F FOG
JUNEAU         CLOUDY    37  37 100 CALM      29.95F FOG
$$

LSZ147-162-211900-
LAKE SUPERIOR

STATION/POSITION TIME  TEMP    WIND        PRES    WAVE
                       AIR SEA DIR/SP/G            HT/PER
                 (UTC) (F)     (DEG/KT/KT) (MB)    (FT/S)
DEVILS ISLAND    1700   29      60/  3/  4 1017.3F
SAXON HARBOR     1730   30     360/  3/  4 1015.9F
$$

LMZ867-665-643>646-211900-
LAKE MICHIGAN

STATION/POSITION TIME  TEMP    WIND        PRES    WAVE
                       AIR SEA DIR/SP/G            HT/PER
                 (UTC) (F)     (DEG/KT/KT) (MB)    (FT/S)
NORTHPORT PIER   1740   33     310/  3/  4 1015.2F
KEWAUNEE LAKESHO 1730   37     150/  2/  2 1014.6F
SHEBOYGAN LAKESH 1700   33     230/  4/  4 1016.1S
PORT WASHINGTON  1730   36     160/  2/  3 1015.9F
MILWAUKEE LAKESH 1730   35      70/  3/  4   N/A
KENOSHA   LAKESH 1700   34        CALM     1015.6
$$

TC  - TEMPERATURE IN CELSIUS
VSB - VISIBILITY IN STATUTE MILES
WCI - WIND CHILL INDEX
HX  - HEAT INDEX




USA.gov is the U.S. government's official web portal to all federal, state and local government web resources and services.